Hourly Data Report for September 12, 2017

All times are specified in Local Standard Time (LST). Add 1 hour to adjust for Daylight Saving Time where and when it is observed.

SAINT JOHN A
NEW BRUNSWICK

45°18'58.000" N
65°53'24.000" W
108.80 m
8104901
71609
YSJ

Download Data

Hourly Data (September 2017)
Hourly Data Report for September 12, 2017
Temp Definition
°C
Dew Point Temp Definition
°C
Rel Hum Definition
%
Wind Dir Definition
10's deg

Wind Spd Definition
km/h
Visibility Definition
km
Stn Press Definition
kPa
Hmdx Definition


Wind Chill Definition


Weather Definition


TIME
00:00 Legend Double Dagger 9.7 8.7 94 36 1 24.1 100.23     LegendNANA
01:00 Legend Double Dagger 7.5 7.3 98 36 3 24.1 100.20     LegendNANA
02:00 Legend Double Dagger 8.0 7.4 96 20 5 24.1 100.15     Clear
03:00 Legend Double Dagger 8.6 8.3 98 36 3 24.1 100.08     LegendNANA
04:00 Legend Double Dagger 7.0 6.3 96 18 4 24.1 100.04     LegendNANA
05:00 Legend Double Dagger 6.5 6.2 98 36 2 24.1 100.01     Clear
06:00 Legend Double Dagger 5.8 5.7 99 18 5 1.2 100.06     Fog
07:00 Legend Double Dagger 7.2 7.1 99 36 3 0.4 100.02     Fog
08:00 Legend Double Dagger 10.7 10.6 99 36 3 4.8 100.02     Fog
09:00 Legend Double Dagger 13.9 11.5 85 5 6 24.1 99.94     LegendNANA
10:00 Legend Double Dagger 17.3 11.8 70 36 1 24.1 99.89     LegendNANA
11:00 Legend Double Dagger 19.1 11.7 62 29 3 24.1 99.83     Mainly Clear
12:00 Legend Double Dagger 20.3 11.7 57 26 12 24.1 99.75     LegendNANA
13:00 Legend Double Dagger 21.4 12.5 56 22 9 24.1 99.65     LegendNANA
14:00 Legend Double Dagger 21.3 11.4 53 21 19 24.1 99.58     Mainly Clear
15:00 Legend Double Dagger 20.4 11.7 57 20 16 24.1 99.50     LegendNANA
16:00 Legend Double Dagger 18.5 12.2 66 20 20 24.1 99.44     LegendNANA
17:00 Legend Double Dagger 18.3 12.6 69 20 16 24.1 99.37     Mainly Clear
18:00 Legend Double Dagger 17.3 12.8 74 21 6 24.1 99.36     LegendNANA
19:00 Legend Double Dagger 14.9 12.5 85 22 3 24.1 99.31     LegendNANA
20:00 Legend Double Dagger 12.2 11.3 94 0 1 24.1 99.34     Mainly Clear
21:00 Legend Double Dagger 11.4 10.7 95 4 5 24.1 99.33     LegendNANA
22:00 Legend Double Dagger 11.3 10.3 94 8 3 24.1 99.34     LegendNANA
23:00 Legend Double Dagger 11.0 10.1 94 36 2 24.1 99.36     Mainly Clear

Notes on Data Quality.

Legend

  • E = Estimated
  • M = Missing
  • NA = Not Available
  • ‡ = Partner data that is not subject to review by the National Climate Archives
Date modified: